When you browse on this site, cookies collect data to enhance your experience and personalize the content and advertising you see.
Visit our Privacy Policy to learn more. By continuing to use the site, you agree to this use of cookies and data.
  • In Schweiz
  • Länderverzeichnis
  • Für 7 Tage
  • Wassertemperatur
  • Wetterkarte
  • Widgets
  • user-avatar
    Anmelden

    Stündliche Wetter Polotsk

    Heute, 4 April, Samstag

    Zeit Temperatur Niederschläge Wind Luftdruck Luftfeuchtigkeit
    00:00 -1°C° 0 mm 4 m/S 742 mmHg 77%
    01:00 -1°C° 0 mm 4 m/S 742 mmHg 79%
    02:00 -2°C° 0 mm 4 m/S 743 mmHg 81%
    03:00 -2°C° 0 mm 4 m/S 743 mmHg 83%
    04:00 -2°C° 0 mm 4 m/S 744 mmHg 84%
    05:00 -2°C° 0 mm 4 m/S 744 mmHg 86%
    06:00 -2°C° 0 mm 4 m/S 745 mmHg 83%
    07:00 -1°C° 0 mm 4 m/S 746 mmHg 79%
    08:00 0°C° 0 mm 4 m/S 747 mmHg 75%
    09:00 +3°C° 0 mm 4 m/S 747 mmHg 64%
    10:00 +4°C° 0 mm 4 m/S 748 mmHg 53%
    11:00 +5°C° 0 mm 4 m/S 749 mmHg 42%
    12:00 +6°C° 0 mm 4 m/S 749 mmHg 39%
    13:00 +6°C° 0 mm 4 m/S 749 mmHg 37%
    14:00 +7°C° 0 mm 5 m/S 750 mmHg 35%
    15:00 +7°C° 0 mm 5 m/S 750 mmHg 36%
    16:00 +6°C° 0 mm 4 m/S 750 mmHg 38%
    17:00 +6°C° 0 mm 4 m/S 750 mmHg 40%
    18:00 +5°C° 0.1 mm 4 m/S 751 mmHg 47%
    19:00 +4°C° 0.1 mm 4 m/S 751 mmHg 54%
    20:00 +1°C° 0.1 mm 4 m/S 752 mmHg 62%
    21:00 +1°C° 0 mm 4 m/S 752 mmHg 64%
    22:00 0°C° 0 mm 4 m/S 753 mmHg 66%
    23:00 0°C° 0 mm 4 m/S 754 mmHg 68%

    Morgen, 5 April, Sonntag

    Zeit Temperatur Niederschläge Wind Luftdruck Luftfeuchtigkeit
    00:00 -1°C° 0 mm 4 m/S 754 mmHg 71%
    01:00 -1°C° 0 mm 4 m/S 755 mmHg 73%
    02:00 -2°C° 0 mm 4 m/S 755 mmHg 76%
    03:00 -2°C° 0 mm 4 m/S 756 mmHg 78%
    04:00 -2°C° 0 mm 3 m/S 756 mmHg 79%
    05:00 -2°C° 0 mm 3 m/S 756 mmHg 81%
    06:00 -2°C° 0 mm 4 m/S 757 mmHg 77%
    07:00 -1°C° 0 mm 4 m/S 757 mmHg 73%
    08:00 +1°C° 0 mm 5 m/S 758 mmHg 69%
    09:00 +2°C° 0 mm 5 m/S 758 mmHg 60%
    10:00 +5°C° 0 mm 5 m/S 758 mmHg 51%
    11:00 +5°C° 0 mm 6 m/S 759 mmHg 41%
    12:00 +7°C° 0 mm 6 m/S 759 mmHg 40%
    13:00 +7°C° 0 mm 5 m/S 759 mmHg 38%
    14:00 +8°C° 0 mm 5 m/S 759 mmHg 36%
    15:00 +7°C° 0 mm 5 m/S 759 mmHg 38%
    16:00 +7°C° 0 mm 5 m/S 759 mmHg 39%
    17:00 +7°C° 0 mm 4 m/S 759 mmHg 40%
    18:00 +7°C° 0 mm 3 m/S 759 mmHg 48%
    19:00 +4°C° 0 mm 3 m/S 759 mmHg 55%
    20:00 +4°C° 0 mm 2 m/S 760 mmHg 62%
    21:00 +3°C° 0 mm 2 m/S 760 mmHg 68%
    22:00 +3°C° 0 mm 2 m/S 760 mmHg 75%
    23:00 +3°C° 0 mm 2 m/S 760 mmHg 81%

    übermorgen, 6 April, Montag

    Zeit Temperatur Niederschläge Wind Luftdruck Luftfeuchtigkeit
    00:00 +3°C° 0 mm 2 m/S 760 mmHg 85%
    01:00 +3°C° 0 mm 2 m/S 760 mmHg 88%
    02:00 +1°C° 0 mm 3 m/S 760 mmHg 92%
    03:00 +1°C° 0 mm 3 m/S 760 mmHg 92%
    04:00 +1°C° 0 mm 3 m/S 760 mmHg 93%
    05:00 +1°C° 0 mm 3 m/S 760 mmHg 93%
    06:00 +2°C° 0 mm 3 m/S 760 mmHg 88%
    07:00 +3°C° 0 mm 3 m/S 760 mmHg 83%
    08:00 +4°C° 0 mm 4 m/S 760 mmHg 78%
    09:00 +6°C° 0 mm 4 m/S 761 mmHg 71%
    10:00 +7°C° 0 mm 4 m/S 761 mmHg 65%
    11:00 +10°C° 0 mm 4 m/S 761 mmHg 58%
    12:00 +11°C° 0 mm 4 m/S 761 mmHg 55%
    13:00 +11°C° 0 mm 4 m/S 761 mmHg 52%
    14:00 +12°C° 0 mm 4 m/S 761 mmHg 50%
    15:00 +12°C° 0 mm 4 m/S 761 mmHg 50%
    16:00 +12°C° 0 mm 3 m/S 761 mmHg 50%
    17:00 +12°C° 0 mm 3 m/S 761 mmHg 51%
    18:00 +10°C° 0 mm 2 m/S 761 mmHg 57%
    19:00 +9°C° 0 mm 2 m/S 761 mmHg 62%
    20:00 +8°C° 0 mm 1 m/S 761 mmHg 68%
    21:00 +8°C° 0 mm 1 m/S 761 mmHg 70%
    22:00 +7°C° 0 mm 1 m/S 761 mmHg 71%
    23:00 +7°C° 0 mm 1 m/S 761 mmHg 73%

    7 April, Dienstag

    Zeit Temperatur Niederschläge Wind Luftdruck Luftfeuchtigkeit
    00:00 +6°C° 0 mm 1 m/S 761 mmHg 74%
    01:00 +6°C° 0 mm 1 m/S 761 mmHg 75%
    02:00 +6°C° 0 mm 1 m/S 762 mmHg 76%
    03:00 +4°C° 0 mm 2 m/S 761 mmHg 77%
    04:00 +4°C° 0 mm 2 m/S 761 mmHg 77%
    05:00 +4°C° 0 mm 2 m/S 761 mmHg 77%
    06:00 +5°C° 0 mm 2 m/S 761 mmHg 72%
    07:00 +5°C° 0 mm 3 m/S 761 mmHg 66%
    08:00 +8°C° 0 mm 3 m/S 761 mmHg 61%
    09:00 +8°C° 0 mm 4 m/S 761 mmHg 54%
    10:00 +11°C° 0 mm 4 m/S 760 mmHg 48%
    11:00 +13°C° 0 mm 5 m/S 760 mmHg 41%
    12:00 +14°C° 0 mm 5 m/S 760 mmHg 40%
    13:00 +14°C° 0 mm 5 m/S 759 mmHg 38%
    14:00 +15°C° 0 mm 5 m/S 759 mmHg 36%
    15:00 +15°C° 0 mm 5 m/S 759 mmHg 38%
    16:00 +14°C° 0 mm 5 m/S 758 mmHg 40%
    17:00 +14°C° 0 mm 5 m/S 757 mmHg 42%
    18:00 +13°C° 0 mm 4 m/S 757 mmHg 47%
    19:00 +11°C° 0 mm 4 m/S 757 mmHg 52%
    20:00 +8°C° 0 mm 4 m/S 756 mmHg 57%
    21:00 +8°C° 0 mm 4 m/S 756 mmHg 59%
    22:00 +8°C° 0 mm 4 m/S 756 mmHg 62%
    23:00 +8°C° 0 mm 4 m/S 756 mmHg 65%

    8 April, Mittwoch

    Zeit Temperatur Niederschläge Wind Luftdruck Luftfeuchtigkeit
    00:00 +7°C° 0 mm 4 m/S 755 mmHg 70%
    01:00 +7°C° 0 mm 4 m/S 755 mmHg 74%
    02:00 +6°C° 0 mm 4 m/S 755 mmHg 79%
    03:00 +6°C° 0 mm 4 m/S 755 mmHg 84%
    04:00 +6°C° 0 mm 4 m/S 755 mmHg 88%
    05:00 +5°C° 0 mm 3 m/S 755 mmHg 93%
    06:00 +6°C° 0 mm 4 m/S 755 mmHg 88%
    07:00 +6°C° 0 mm 4 m/S 755 mmHg 84%
    08:00 +7°C° 0 mm 5 m/S 755 mmHg 80%
    09:00 +7°C° 0 mm 5 m/S 755 mmHg 78%
    10:00 +8°C° 0 mm 4 m/S 755 mmHg 75%
    11:00 +8°C° 0 mm 4 m/S 755 mmHg 73%
    12:00 +10°C° 0 mm 4 m/S 755 mmHg 69%
    13:00 +11°C° 0 mm 3 m/S 755 mmHg 65%
    14:00 +12°C° 0 mm 3 m/S 754 mmHg 60%
    15:00 +12°C° 0 mm 3 m/S 754 mmHg 59%
    16:00 +13°C° 0 mm 2 m/S 753 mmHg 58%
    17:00 +13°C° 0 mm 2 m/S 753 mmHg 57%
    18:00 +12°C° 0 mm 2 m/S 753 mmHg 62%
    19:00 +10°C° 0 mm 1 m/S 752 mmHg 67%
    20:00 +9°C° 0 mm 1 m/S 752 mmHg 72%
    21:00 +8°C° 0 mm 1 m/S 752 mmHg 73%
    22:00 +7°C° 0 mm 2 m/S 751 mmHg 74%
    23:00 +7°C° 0 mm 2 m/S 751 mmHg 75%

    9 April, Donnerstag

    Zeit Temperatur Niederschläge Wind Luftdruck Luftfeuchtigkeit
    00:00 +6°C° 0 mm 2 m/S 751 mmHg 78%
    01:00 +5°C° 0 mm 3 m/S 750 mmHg 80%
    02:00 +5°C° 0 mm 3 m/S 749 mmHg 82%
    03:00 +4°C° 0 mm 3 m/S 749 mmHg 83%
    04:00 +4°C° 0 mm 3 m/S 748 mmHg 84%
    05:00 +4°C° 0 mm 3 m/S 748 mmHg 85%
    06:00 +4°C° 0 mm 4 m/S 747 mmHg 75%
    07:00 +5°C° 0 mm 4 m/S 747 mmHg 65%
    08:00 +6°C° 0 mm 5 m/S 747 mmHg 55%
    09:00 +8°C° 0 mm 5 m/S 746 mmHg 53%
    10:00 +9°C° 0 mm 5 m/S 746 mmHg 52%
    11:00 +11°C° 0 mm 6 m/S 745 mmHg 50%
    12:00 +10°C° 0 mm 6 m/S 745 mmHg 53%
    13:00 +10°C° 0 mm 6 m/S 744 mmHg 57%
    14:00 +9°C° 0 mm 6 m/S 744 mmHg 61%
    15:00 +9°C° 0.2 mm 6 m/S 743 mmHg 63%
    16:00 +8°C° 0.2 mm 6 m/S 743 mmHg 65%
    17:00 +8°C° 0.2 mm 6 m/S 743 mmHg 68%
    18:00 +7°C° 0.1 mm 5 m/S 743 mmHg 69%
    19:00 +6°C° 0.1 mm 4 m/S 743 mmHg 70%
    20:00 +5°C° 0.1 mm 4 m/S 744 mmHg 71%
    21:00 +4°C° 0 mm 4 m/S 744 mmHg 72%
    22:00 +3°C° 0 mm 4 m/S 744 mmHg 73%
    23:00 +3°C° 0 mm 4 m/S 745 mmHg 73%
    Mehr zeigen